FW7499 Weather Reports


time (UTC)temp
C
wind
direction
speed
KPH
gust
KPH
rain 1hr
cm
rain 24hr
cm
rain mn
cm
humidity
%
barometer
mb
20260903111527 22 9 0.0 3.2 0.00 0.05 0.05 89 1010.6
20260903111004 22 10 0.0 3.2 0.03 0.05 0.05 88 1010.6
20260903110505 22 9 0.0 3.2 0.05 0.05 0.05 88 1010.6
20260903110004 22 10 0.0 3.2 0.05 0.05 0.05 87 1010.7
20260903105504 22 186 0.0 3.2 0.05 0.05 0.05 88 1010.7
20260903105002 22 186 0.0 3.2 0.05 0.05 0.05 87 1010.8
20260903104504 22 186 0.0 3.2 0.05 0.05 0.05 87 1010.9
20260903104004 22 186 0.0 3.2 0.05 0.05 0.05 87 1010.8
20260903103503 22 186 0.0 3.2 0.05 0.05 0.05 86 1010.9
20260903103003 22 186 0.0 1.6 0.05 0.05 0.05 85 1011.0
20260903102503 23 186 0.0 3.2 0.05 0.05 0.05 84 1011.0
20260903102004 23 186 0.0 3.2 0.05 0.05 0.05 81 1011.0
20260903101503 25 186 0.0 3.2 0.05 0.05 0.05 78 1011.0
20260903101007 26 186 1.6 4.8 0.03 0.03 0.03 70 1010.9
20260903100504 26 259 1.6 6.4 0.00 0.00 0.00 64 1011.0
20260903100004 26 254 1.6 6.4 0.00 0.00 0.00 64 1010.8
20260903095505 26 175 1.6 8.0 0.00 0.00 0.00 64 1010.6
20260903095003 26 225 1.6 8.0 0.00 0.00 0.00 64 1010.6
20260903094504 26 232 3.2 9.7 0.00 0.00 0.00 64 1010.5
20260903094005 26 194 1.6 9.7 0.00 0.00 0.00 64 1010.5
20260903093505 26 211 1.6 9.7 0.00 0.00 0.00 64 1010.5
20260903093003 26 186 1.6 6.4 0.00 0.00 0.00 64 1010.6
20260903092503 26 140 3.2 8.0 0.00 0.00 0.00 64 1010.6
20260903092003 26 252 1.6 8.0 0.00 0.00 0.00 64 1010.6
20260903091508 26 188 1.6 8.0 0.00 0.00 0.00 64 1010.6
20260903091004 26 187 0.0 6.4 0.00 0.00 0.00 64 1010.6
20260903090504 26 194 0.0 4.8 0.00 0.00 0.00 64 1010.6
20260903090015 26 144 1.6 4.8 0.00 0.00 0.00 64 1010.6
20260903085503 27 344 0.0 6.4 0.00 0.00 0.00 63 1010.6
20260903085002 27 173 1.6 6.4 0.00 0.00 0.00 63 1010.6
20260903084522 26 211 0.0 8.0 0.00 0.00 0.00 64 1010.6
20260903084005 27 168 0.0 8.0 0.00 0.00 0.00 63 1010.6
20260903083504 27 161 1.6 8.0 0.00 0.00 0.00 63 1010.6
20260903083010 27 173 1.6 6.4 0.00 0.00 0.00 62 1010.6
20260903082504 27 207 1.6 4.8 0.00 0.00 0.00 63 1010.6
20260903082003 27 215 1.6 4.8 0.00 0.00 0.00 62 1010.7
20260903081503 27 191 0.0 4.8 0.00 0.00 0.00 63 1010.6
20260903081004 27 227 1.6 8.0 0.00 0.00 0.00 61 1010.6
20260903080504 27 42 1.6 8.0 0.00 0.00 0.00 61 1010.7
20260903080008 27 144 1.6 6.4 0.00 0.00 0.00 61 1010.7
20260903075505 27 352 1.6 4.8 0.00 0.00 0.00 61 1010.7
20260903075005 27 230 0.0 3.2 0.00 0.00 0.00 62 1010.7
20260903074509 27 342 0.0 6.4 0.00 0.00 0.00 62 1010.6
20260903074006 27 55 0.0 6.4 0.00 0.00 0.00 63 1010.7
20260903073508 27 100 0.0 3.2 0.00 0.00 0.00 63 1010.7
20260903073009 27 159 0.0 3.2 0.00 0.00 0.00 62 1010.7
20260903072505 27 186 0.0 9.7 0.00 0.00 0.00 62 1010.7
20260903072007 27 170 1.6 9.7 0.00 0.00 0.00 62 1010.6
20260903071511 27 241 0.0 6.4 0.00 0.00 0.00 61 1010.7
20260903071003 27 264 1.6 6.4 0.00 0.00 0.00 61 1010.7
20260903070507 27 198 0.0 4.8 0.00 0.00 0.00 62 1010.8
20260903070010 27 174 0.0 12.9 0.00 0.00 0.00 62 1010.7
20260903065506 27 198 1.6 12.9 0.00 0.00 0.00 61 1010.8
20260903065005 27 254 1.6 8.0 0.00 0.00 0.00 61 1010.8
20260903064510 27 214 1.6 8.0 0.00 0.00 0.00 60 1010.7
20260903064006 28 140 3.2 8.0 0.00 0.00 0.00 60 1010.7
20260903063505 28 253 1.6 12.9 0.00 0.00 0.00 60 1010.7
20260903063011 28 186 1.6 12.9 0.00 0.00 0.00 60 1010.7
20260903062507 27 246 1.6 6.4 0.00 0.00 0.00 61 1010.8
20260903062006 28 255 1.6 6.4 0.00 0.00 0.00 60 1010.8
20260903061511 28 330 0.0 6.4 0.00 0.00 0.00 60 1010.7
20260903061008 28 215 1.6 4.8 0.00 0.00 0.00 60 1010.8
20260903060506 28 171 1.6 8.0 0.00 0.00 0.00 60 1010.9
20260903060013 28 234 1.6 8.0 0.00 0.00 0.00 60 1010.9
20260903055508 28 255 1.6 4.8 0.00 0.00 0.00 60 1010.9
20260903055007 28 190 0.0 11.3 0.00 0.00 0.00 60 1010.9
20260903054511 28 225 1.6 11.3 0.00 0.00 0.00 59 1010.8
20260903054008 28 245 0.0 6.4 0.00 0.00 0.00 60 1010.9
20260903053508 28 177 0.0 6.4 0.00 0.00 0.00 60 1010.8
20260903053026 28 257 0.0 14.5 0.00 0.00 0.00 59 1010.8
20260903052507 28 215 3.2 14.5 0.00 0.00 0.00 59 1010.8
20260903052010 28 230 1.6 9.7 0.00 0.00 0.00 58 1010.8
20260903051513 28 200 1.6 9.7 0.00 0.00 0.00 58 1010.7
20260903051010 28 304 1.6 9.7 0.00 0.00 0.00 58 1010.8
20260903050509 28 159 3.2 11.3 0.00 0.00 0.00 57 1010.8
20260903050016 28 195 3.2 8.0 0.00 0.00 0.00 58 1010.8
20260903045510 28 200 3.2 8.0 0.00 0.00 0.00 57 1010.8
20260903045008 28 295 3.2 11.3 0.00 0.00 0.00 58 1010.9
20260903044519 28 110 1.6 11.3 0.00 0.00 0.00 58 1010.9
20260903044011 28 221 1.6 8.0 0.00 0.00 0.00 58 1010.9
20260903043516 28 317 0.0 8.0 0.00 0.00 0.00 57 1010.9
20260903043028 28 213 1.6 9.7 0.00 0.00 0.00 57 1010.9
20260903042510 28 175 1.6 9.7 0.00 0.00 0.00 57 1010.8
20260903042008 28 242 1.6 8.0 0.00 0.00 0.00 58 1010.8
20260903041520 28 207 1.6 9.7 0.00 0.00 0.00 58 1010.8
20260903041010 28 193 1.6 9.7 0.00 0.00 0.00 58 1010.8
20260903040511 28 227 1.6 8.0 0.00 0.00 0.00 58 1010.8
20260903040016 28 131 0.0 8.0 0.00 0.00 0.00 59 1010.8
20260903035510 28 227 1.6 4.8 0.00 0.00 0.00 58 1010.7
20260903035011 28 315 1.6 4.8 0.00 0.00 0.00 58 1010.8
20260903034518 29 253 1.6 12.9 0.00 0.00 0.00 58 1010.7
20260903034010 29 240 3.2 12.9 0.00 0.00 0.00 58 1010.7
20260903033512 29 124 1.6 9.7 0.00 0.00 0.00 57 1010.7
20260903033017 29 177 3.2 9.7 0.00 0.00 0.00 57 1010.7
20260903032515 29 203 1.6 4.8 0.00 0.00 0.00 58 1010.7
20260903032013 29 172 1.6 8.0 0.00 0.00 0.00 57 1010.7
20260903031518 29 229 1.6 8.0 0.00 0.00 0.00 57 1010.7
20260903031009 29 163 1.6 11.3 0.00 0.00 0.00 56 1010.7
20260903030511 30 227 4.8 11.3 0.00 0.00 0.00 56 1010.7
20260903030022 30 172 3.2 11.3 0.00 0.00 0.00 56 1010.8
20260903025512 30 167 1.6 6.4 0.00 0.00 0.00 57 1010.7
20260903025011 30 237 0.0 4.8 0.00 0.00 0.00 56 1010.6
20260903024521 30 202 1.6 9.7 0.00 0.00 0.00 56 1010.6
20260903024012 30 297 1.6 9.7 0.00 0.00 0.00 56 1010.6
20260903023512 30 9 1.6 12.9 0.00 0.00 0.00 56 1010.5
20260903023020 30 229 0.0 12.9 0.00 0.00 0.00 55 1010.5
20260903022513 30 211 0.0 8.0 0.00 0.00 0.00 55 1010.4
20260903022011 30 195 1.6 6.4 0.00 0.00 0.00 56 1010.2
20260903021510 30 209 1.6 6.4 0.00 0.00 0.00 55 1010.3
20260903021007 30 225 1.6 6.4 0.00 0.00 0.00 56 1010.2
20260903020508 30 202 1.6 6.4 0.00 0.00 0.00 56 1010.1
20260903020006 30 155 1.6 6.4 0.00 0.00 0.00 56 1010.0
20260903015507 30 123 1.6 4.8 0.00 0.00 0.00 57 1010.0
20260903015012 30 172 1.6 4.8 0.00 0.00 0.00 58 1009.9
20260903014520 30 175 1.6 4.8 0.00 0.00 0.00 58 1009.9
20260903014012 30 128 0.0 6.4 0.00 0.00 0.00 58 1009.9
20260903013507 30 192 0.0 6.4 0.00 0.00 0.00 58 1009.9
20260903013004 30 218 1.6 6.4 0.00 0.00 0.00 57 1009.9
20260903012504 30 130 0.0 3.2 0.00 0.00 0.00 57 1009.8
20260903012006 31 202 0.0 6.4 0.00 0.00 0.00 57 1009.8
20260903011508 31 146 0.0 6.4 0.00 0.00 0.00 57 1009.8
20260903011008 31 201 1.6 6.4 0.00 0.00 0.00 55 1009.7
20260903010507 31 126 0.0 4.8 0.00 0.00 0.00 56 1009.7
20260903010006 31 179 1.6 4.8 0.00 0.00 0.00 55 1009.8
20260903005508 31 188 1.6 4.8 0.00 0.00 0.00 56 1009.8
20260903005005 31 226 1.6 4.8 0.00 0.00 0.00 55 1009.8
20260903004518 31 217 0.0 3.2 0.00 0.00 0.00 55 1009.8
20260903004010 31 198 0.0 3.2 0.00 0.00 0.00 57 1009.8
20260903003505 31 217 0.0 3.2 0.00 0.00 0.00 55 1009.8
20260903003003 32 144 0.0 6.4 0.00 0.00 0.00 54 1009.8
20260903002508 32 180 0.0 6.4 0.00 0.00 0.00 53 1009.8
20260903002005 32 219 1.6 6.4 0.00 0.00 0.00 53 1009.8
20260903001510 32 123 1.6 6.4 0.00 0.00 0.00 54 1009.8
20260903001003 32 152 0.0 6.4 0.00 0.00 0.00 54 1009.8
20260903000507 33 225 1.6 6.4 0.00 0.00 0.00 53 1009.8
20260903000008 33 222 0.0 6.4 0.00 0.00 0.00 52 1009.8
20260902235504 33 153 1.6 6.4 0.00 0.00 0.00 1009.8
20260902235009 33 204 0.0 4.8 0.00 0.00 0.00 51 1009.9
20260902234515 33 86 0.0 3.2 0.00 0.00 0.00 51 1009.9
20260902234002 33 164 0.0 8.0 0.00 0.00 0.00 50 1009.9
20260902233503 33 169 1.6 8.0 0.00 0.00 0.00 50 1009.9
20260902233012 33 304 0.0 6.4 0.00 0.00 0.00 54 1009.9
20260902232514 33 296 0.0 6.4 0.00 0.00 0.00 53 1009.9
20260902232010 34 144 0.0 8.0 0.00 0.00 0.00 49 1009.9
20260902231512 34 324 0.0 8.0 0.00 0.00 0.00 48 1009.9
20260902231011 34 256 1.6 8.0 0.00 0.00 0.00 48 1010.0
20260902230502 35 223 1.6 8.0 0.00 0.00 0.00 48 1009.9
20260902230009 35 204 1.6 8.0 0.00 0.00 0.00 47 1010.0
20260902225507 35 300 3.2 11.3 0.00 0.00 0.00 47 1010.0
20260902225008 35 308 3.2 11.3 0.00 0.00 0.00 48 1010.0
20260902224514 35 132 3.2 14.5 0.00 0.00 0.00 46 1010.0
20260902224008 35 240 1.6 14.5 0.00 0.00 0.00 47 1010.0
20260902223505 35 331 3.2 14.5 0.00 0.00 0.00 50 1010.0
20260902223019 35 167 3.2 11.3 0.00 0.00 0.00 47 1010.0
20260902222505 35 134 1.6 8.0 0.00 0.00 0.00 47 1010.1
20260902222011 35 18 1.6 11.3 0.00 0.00 0.00 47 1010.0
20260902221530 35 9 3.2 14.5 0.00 0.00 0.00 47 1010.0
20260902221009 35 47 3.2 14.5 0.00 0.00 0.00 47 1010.0
20260902220517 35 137 1.6 17.7 0.00 0.00 0.00 48 1010.1
20260902220028 35 242 4.8 17.7 0.00 0.00 0.00 48 1010.0
20260902215514 35 167 3.2 12.9 0.00 0.00 0.00 48 1010.1
20260902215007 35 30 4.8 12.9 0.00 0.00 0.00 46 1010.1
20260902214512 35 217 3.2 12.9 0.00 0.00 0.00 46 1010.1
20260902214007 35 263 3.2 12.9 0.00 0.00 0.00 47 1010.1
20260902213509 35 258 1.6 9.7 0.00 0.00 0.00 47 1010.1
20260902213014 35 262 1.6 9.7 0.00 0.00 0.00 47 1010.1
20260902212511 35 136 1.6 14.5 0.00 0.00 0.00 49 1010.2
20260902212014 35 215 3.2 14.5 0.00 0.00 0.00 47 1010.1
20260902211512 35 316 3.2 19.3 0.00 0.00 0.00 47 1010.2
20260902211011 35 264 4.8 16.1 0.00 0.00 0.00 45 1010.2
20260902210511 35 301 3.2 19.3 0.00 0.00 0.00 47 1010.2
20260902210047 35 273 3.2 19.3 0.00 0.00 0.00 46 1010.4
20260902205507 35 227 4.8 19.3 0.00 0.00 0.00 47 1010.4
20260902205009 35 251 3.2 14.5 0.00 0.00 0.00 49 1010.4
20260902204533 35 83 3.2 14.5 0.00 0.00 0.00 47 1010.5
20260902204014 35 329 3.2 14.5 0.00 0.00 0.00 47 1010.5
20260902203506 35 223 3.2 19.3 0.00 0.00 0.00 49 1010.6
20260902203012 35 248 6.4 19.3 0.00 0.00 0.00 47 1010.7
20260902202511 35 269 6.4 19.3 0.00 0.00 0.00 47 1010.7
20260902202010 35 98 3.2 17.7 0.00 0.00 0.00 47 1010.7
20260902201524 35 304 4.8 17.7 0.00 0.00 0.00 47 1010.7
20260902201009 35 333 1.6 16.1 0.00 0.00 0.00 47 1010.8
20260902200513 35 336 3.2 17.7 0.00 0.00 0.00 46 1010.7
20260902200016 35 289 3.2 17.7 0.00 0.00 0.00 45 1010.7
20260902195508 35 246 1.6 11.3 0.00 0.00 0.00 48 1010.7
20260902195015 35 299 3.2 12.9 0.00 0.00 0.00 50 1010.8
20260902194534 35 282 3.2 12.9 0.00 0.00 0.00 49 1010.8
20260902194011 34 54 3.2 8.0 0.00 0.00 0.00 49 1010.9
20260902193514 33 39 1.6 12.9 0.00 0.00 0.00 51 1011.0
20260902193016 33 285 3.2 12.9 0.00 0.00 0.00 50 1011.1
20260902192508 34 173 1.6 9.7 0.00 0.00 0.00 52 1011.1
20260902192011 33 317 1.6 12.9 0.00 0.00 0.00 51 1011.2
20260902191517 33 128 4.8 12.9 0.00 0.00 0.00 48 1011.2
20260902191010 33 226 1.6 8.0 0.00 0.00 0.00 48 1011.1
20260902190517 33 79 1.6 6.4 0.00 0.00 0.00 50 1011.2
20260902190034 33 11 0.0 11.3 0.00 0.00 0.00 50 1011.3
20260902185517 33 346 1.6 11.3 0.00 0.00 0.00 51 1011.3
20260902185011 32 198 3.2 11.3 0.00 0.00 0.00 50 1011.5
20260902184531 32 218 1.6 9.7 0.00 0.00 0.00 51 1011.6
20260902184016 32 241 3.2 9.7 0.00 0.00 0.00 52 1011.7
20260902183515 32 80 1.6 8.0 0.00 0.00 0.00 52 1011.6
20260902183021 33 167 1.6 6.4 0.00 0.00 0.00 52 1011.6
20260902182517 33 284 1.6 8.0 0.00 0.00 0.00 52 1011.7
20260902182019 32 12 3.2 8.0 0.00 0.00 0.00 53 1011.8
20260902181516 32 160 1.6 9.7 0.00 0.00 0.00 55 1011.9
20260902181014 31 275 3.2 9.7 0.00 0.00 0.00 55 1012.0
20260902180513 31 226 1.6 9.7 0.00 0.00 0.00 55 1012.0
20260902180020 31 80 0.0 9.7 0.00 0.00 0.00 54 1012.1
20260902175516 31 259 1.6 9.7 0.00 0.00 0.00 53 1012.1
20260902175012 31 187 3.2 11.3 0.00 0.00 0.00 53 1012.2
20260902174525 32 47 1.6 11.3 0.00 0.00 0.00 54 1012.2
20260902174011 32 269 1.6 9.7 0.00 0.00 0.00 52 1012.3
20260902173516 32 288 1.6 11.3 0.00 0.00 0.00 53 1012.3
20260902173030 32 360 3.2 12.9 0.00 0.00 0.00 53 1012.4
20260902172519 31 227 4.8 12.9 0.00 0.00 0.00 52 1012.4
20260902172014 31 291 1.6 6.4 0.00 0.00 0.00 54 1012.4
20260902171529 31 120 1.6 9.7 0.00 0.00 0.00 54 1012.4
20260902171016 32 165 0.0 11.3 0.00 0.00 0.00 53 1012.4
20260902170512 31 214 3.2 11.3 0.00 0.00 0.00 55 1012.4
20260902170025 31 267 1.6 6.4 0.00 0.00 0.00 57 1012.5
20260902165512 31 327 0.0 4.8 0.00 0.00 0.00 57 1012.5
20260902165013 31 350 1.6 6.4 0.00 0.00 0.00 55 1012.4
20260902164524 31 296 1.6 6.4 0.00 0.00 0.00 55 1012.5
20260902164015 31 99 1.6 6.4 0.00 0.00 0.00 55 1012.5
20260902163516 29 217 1.6 6.4 0.00 0.00 0.00 58 1012.5
20260902163027 30 246 0.0 3.2 0.00 0.00 0.00 58 1012.5
20260902162513 30 248 0.0 6.4 0.00 0.00 0.00 57 1012.5
20260902162015 30 224 1.6 12.9 0.00 0.00 0.00 53 1012.5
20260902161529 30 349 3.2 12.9 0.00 0.00 0.00 52 1012.5
20260902161013 31 263 1.6 9.7 0.00 0.00 0.00 52 1012.5
20260902160516 31 293 3.2 8.0 0.00 0.00 0.00 54 1012.5
20260902160024 30 263 1.6 6.4 0.00 0.00 0.00 60 1012.5
20260902155520 29 296 1.6 3.2 0.00 0.00 0.00 63 1012.4
20260902155020 28 205 0.0 3.2 0.00 0.00 0.00 66 1012.5
20260902154522 27 57 0.0 3.2 0.00 0.00 0.00 64 1012.6
20260902154013 28 250 0.0 3.2 0.00 0.00 0.00 64 1012.5
20260902153514 27 232 0.0 8.0 0.00 0.00 0.00 63 1012.5
20260902153029 27 184 0.0 8.0 0.00 0.00 0.00 65 1012.6
20260902152515 27 213 0.0 8.0 0.00 0.00 0.00 63 1012.6
20260902152016 27 266 0.0 8.0 0.00 0.00 0.00 63 1012.5
20260902151526 28 253 0.0 6.4 0.00 0.00 0.00 65 1012.6
20260902151017 28 184 0.0 6.4 0.00 0.00 0.00 64 1012.5
20260902150512 27 213 1.6 4.8 0.00 0.00 0.00 66 1012.5
20260902150029 27 146 0.0 3.2 0.00 0.00 0.00 68 1012.5
20260902145516 27 121 0.0 3.2 0.00 0.00 0.00 67 1012.5
20260902145018 26 205 0.0 3.2 0.00 0.00 0.00 71 1012.4
20260902144537 26 165 1.6 3.2 0.00 0.00 0.00 69 1012.4
20260902144014 26 269 1.6 3.2 0.00 0.00 0.00 69 1012.5
20260902143517 25 40 0.0 3.2 0.00 0.00 0.00 72 1012.5
20260902143033 25 30 0.0 3.2 0.00 0.00 0.00 74 1012.4
20260902142513 25 332 0.0 3.2 0.00 0.00 0.00 70 1012.5
20260902142013 25 332 1.6 6.4 0.00 0.00 0.00 70 1012.6
20260902141508 25 113 1.6 6.4 0.00 0.00 0.00 68 1012.4
20260902141003 25 45 1.6 6.4 0.00 0.00 0.00 65 1012.3
20260902140504 26 242 0.0 3.2 0.00 0.00 0.00 65 1012.7
20260902140009 26 136 0.0 3.2 0.00 0.00 0.00 65 1012.8
20260902135509 26 97 0.0 3.2 0.00 0.00 0.00 68 1012.6
20260902135003 26 88 0.0 4.8 0.00 0.00 0.00 67 1012.7
20260902134518 26 87 0.0 4.8 0.00 0.00 0.00 68 1012.6
20260902134006 26 110 1.6 4.8 0.00 0.00 0.00 66 1012.8
20260902133509 26 134 0.0 3.2 0.00 0.00 0.00 65 1012.8
20260902133004 26 225 0.0 3.2 0.00 0.00 0.00 67 1013.0
20260902132504 25 123 0.0 4.8 0.00 0.00 0.00 68 1012.9
20260902132003 25 221 0.0 4.8 0.00 0.00 0.00 71 1012.9
20260902131505 24 216 1.6 3.2 0.00 0.00 0.00 74 1012.9
20260902131002 24 108 0.0 3.2 0.00 0.00 0.00 77 1012.9
20260902130502 23 107 0.0 3.2 0.00 0.00 0.00 78 1013.1
20260902130009 23 108 0.0 3.2 0.00 0.00 0.00 80 1013.2
20260902125501 23 107 0.0 3.2 0.00 0.00 0.00 80 1013.2
20260902125002 22 108 0.0 3.2 0.00 0.00 0.00 80 1013.1
20260902124514 22 108 0.0 1.6 0.00 0.00 0.00 80 1013.1
20260902124005 22 108 0.0 1.6 0.00 0.00 0.00 80 1013.0
20260902123502 22 107 0.0 3.2 0.00 0.00 0.00 79 1013.0
20260902123010 22 108 0.0 3.2 0.00 0.00 0.00 78 1013.0
20260902122503 22 108 0.0 0.0 0.00 0.00 0.00 77 1012.9
20260902122002 22 107 0.0 0.0 0.00 0.00 0.00 78 1012.9
20260902121503 22 108 0.0 0.0 0.00 0.00 0.00 78 1012.9
20260902121006 22 108 0.0 0.0 0.00 0.00 0.00 78 1012.7
20260902120503 22 108 0.0 3.2 0.00 0.00 0.00 78 1012.7
20260902120006 22 108 0.0 3.2 0.00 0.00 0.00 77 1012.8
20260902115505 22 108 0.0 4.8 0.00 0.00 0.00 76 1012.7
20260902115007 22 108 0.0 4.8 0.00 0.00 0.00 75 1012.5
20260902114504 22 96 1.6 4.8 0.00 0.00 0.00 75 1012.5
20260902114007 22 95 0.0 3.2 0.00 0.00 0.00 75 1012.4
20260902113507 23 95 0.0 3.2 0.00 0.00 0.00 73 1012.4
20260902113003 22 95 0.0 3.2 0.00 0.00 0.00 74 1012.4
20260902112505 22 89 0.0 3.2 0.00 0.00 0.00 74 1012.5
20260902112007 22 89 0.0 3.2 0.00 0.00 0.00 74 1012.5